Flag for Japan

Past Weather in 35°10'53.0"N, 136°54'21.9"E, Japan — Yesterday and Last 2 Weeks

Currently: 91 °F. Passing clouds. (Weather station: Nagoya Airport, Japan). See more current weather

Past Weather in 35°10'53.0"N, 136°54'21.9"E — Graph

°F

35°10'53.0"N, 136°54'21.9"E Temperature Yesterday

Maximum temperature yesterday: 90 °F (at 12:30 pm)
Minimum temperature yesterday: 79 °F (at 3:00 am)
Average temperature yesterday: 85 °F

High & Low Weather Summary for the Past Weeks

 TemperatureHumidityPressure
High93 °F (Jul 7, 1:30 pm)100% (Jul 11, 2:00 am)29.98 "Hg (Jul 11, 2:00 am)
Low72 °F (Jul 12, 10:00 am)53% (Jul 7, 2:00 pm)29.53 "Hg (Jul 11, 2:00 am)
Average81 °F84%29.79 "Hg
* Reported Jul 7 12:00 pm — Jul 22 12:00 pm, 35°10'53.0"N, 136°54'21.9"E. Weather by CustomWeather, © 2024

Note: Actual official high and low records may vary slightly from our data, if they occured in-between our weather recording intervals... More about our weather records

35°10'53.0"N, 136°54'21.9"E Weather History for the Previous 24 Hours

Scroll right to see more
 ConditionsComfort  
Time TempWeatherWind HumidityBarometerVisibility
12:00 pm
Mon, Jul 22
91 °FPassing clouds.6 mph71%29.80 "HgN/A
11:30 am90 °FPassing clouds.5 mph75%29.83 "HgN/A
11:00 am91 °FPassing clouds.6 mph71%29.83 "HgN/A
10:00 am88 °FPassing clouds.2 mph70%29.83 "HgN/A
9:30 am88 °FPassing clouds.3 mph75%29.83 "HgN/A
9:00 am88 °FPassing clouds.5 mph70%29.83 "HgN/A
8:30 am86 °FPassing clouds.5 mph79%29.83 "HgN/A
8:00 am86 °FPassing clouds.6 mph84%29.86 "HgN/A
7:30 am86 °FPassing clouds.3 mph79%29.86 "HgN/A
7:00 am86 °FPassing clouds.3 mph75%29.86 "HgN/A
6:30 am86 °FPassing clouds.5 mph79%29.86 "HgN/A
6:00 am84 °FPassing clouds.6 mph79%29.83 "HgN/A
5:30 am84 °FClear.6 mph84%29.83 "HgN/A
5:00 am84 °FClear.7 mph84%29.83 "HgN/A
4:00 am84 °FClear.8 mph84%29.83 "HgN/A
3:30 am84 °FClear.8 mph84%29.83 "HgN/A
3:00 am84 °FClear.6 mph84%29.80 "HgN/A
2:30 am84 °FClear.8 mph84%29.83 "HgN/A
2:00 am86 °FClear.9 mph79%29.83 "HgN/A
1:30 am86 °FClear.10 mph75%29.83 "HgN/A
1:00 am86 °FClear.12 mph75%29.83 "HgN/A
12:30 am86 °FClear.10 mph79%29.83 "HgN/A
12:00 am86 °FClear.7 mph79%29.83 "HgN/A
11:00 pm
Sun, Jul 21
86 °FClear.9 mph84%29.83 "HgN/A
10:30 pm86 °FPassing clouds.6 mph84%29.83 "HgN/A
10:00 pm86 °FPassing clouds.7 mph84%29.83 "HgN/A
9:30 pm86 °FPassing clouds.9 mph84%29.83 "HgN/A
9:00 pm86 °FPassing clouds.8 mph84%29.83 "HgN/A
8:30 pm86 °FPassing clouds.9 mph79%29.83 "HgN/A
8:00 pm86 °FPassing clouds.8 mph75%29.80 "HgN/A
7:30 pm88 °FPassing clouds.7 mph70%29.80 "HgN/A
7:00 pm88 °FPassing clouds.8 mph75%29.80 "HgN/A
6:30 pm90 °FPassing clouds.12 mph67%29.77 "HgN/A
6:00 pm90 °FPassing clouds.10 mph67%29.77 "HgN/A
5:00 pm90 °FPassing clouds.10 mph75%29.80 "HgN/A
4:00 pm90 °FPassing clouds.12 mph71%29.80 "HgN/A
3:30 pm90 °FScattered clouds.13 mph75%29.80 "HgN/A
3:00 pm90 °FScattered clouds.14 mph71%29.80 "HgN/A
2:30 pm90 °FScattered clouds.13 mph75%29.80 "HgN/A
2:00 pm90 °FPartly sunny.8 mph75%29.80 "HgN/A
1:30 pm90 °FPartly sunny.7 mph71%29.83 "HgN/A
1:00 pm90 °FPartly sunny.5 mph71%29.83 "HgN/A
Weather by CustomWeather, © 2024

See weather overview